Location: Prague
(50.0984°N, 14.4360°E)
Time: 11:52:02
(UTC+01:00)

ISS - Visible Passes

Search period start: 24 March 2019 00:00
Search period end: 03 April 2019 01:00
Orbit: 408 x 411 km, 51.6° (Epoch: 24 March)

Date Brightness Start Highest point End Pass type
(mag) Time Alt. Az. Time Alt. Az. Time Alt. Az.
24 Mar -3.3 19:32:20 10° SW 19:35:29 42° SSE 19:37:09 23° E visible
24 Mar -1.4 21:08:42 10° W 21:09:56 21° W 21:09:56 21° W visible
25 Mar -3.9 20:18:01 10° WSW 20:21:19 85° N 20:21:38 71° ENE visible
26 Mar -3.9 19:27:21 10° WSW 19:30:39 74° SSE 19:33:13 16° ENE visible
26 Mar -2.0 21:04:02 10° W 21:05:59 32° WNW 21:05:59 32° WNW visible
27 Mar -3.6 20:13:18 10° W 20:16:36 67° N 20:17:27 44° ENE visible
27 Mar -0.5 21:50:01 10° WNW 21:50:13 11° WNW 21:50:13 11° WNW visible
28 Mar -3.7 19:22:34 10° W 19:25:52 77° NNW 19:28:51 12° ENE visible
28 Mar -2.5 20:59:18 10° WNW 21:01:37 41° WNW 21:01:37 41° WNW visible
29 Mar -3.6 20:08:34 10° W 20:11:52 65° N 20:12:58 37° ENE visible
29 Mar -0.7 21:45:13 10° WNW 21:45:43 14° WNW 21:45:43 14° WNW visible
30 Mar -3.5 19:17:48 10° W 19:21:06 65° N 19:24:16 11° E visible
30 Mar -3.0 20:54:29 10° WNW 20:57:01 49° WNW 20:57:01 49° WNW visible
31 Mar -3.8 21:03:45 10° WNW 21:07:04 77° NNE 21:08:18 35° E visible
31 Mar -0.9 22:40:27 10° W 22:41:03 14° W 22:41:03 14° W visible
01 Apr -3.6 20:13:00 10° WNW 20:16:17 67° N 20:19:35 10° E visible
01 Apr -3.0 21:49:37 10° WNW 21:52:20 46° WSW 21:52:20 46° WSW visible
02 Apr -3.8 20:58:51 10° WNW 21:02:10 74° SSW 21:03:36 31° ESE visible
02 Apr -0.8 22:35:56 10° W 22:36:21 12° W 22:36:21 12° W visible
